Zurück zum Katalog

COSMOS 2499 DEB

AktivPO
NORAD 60618·DEBRIS·🇷🇺 Russia

Gestartet May 23, 2014 von Plesetsk Cosmodrome

Loading…

Nächste Überflüge (nächste 24 Stunden)

TLE

VeraltetSource: Space-Track

Epoche: Aug 25, 2026, 11:16 UTC

1 60618U 14028CE  26237.46991413 -.00015674  00000-0 -29802-1 0  9990
2 60618  82.2064 138.7122 0340897  43.2182 319.5155 13.18107536170978

Verfolge COSMOS 2499 DEB in Echtzeit mit AllMySat

Download on the App Store